www.pogodaiklimat.ru

Погода и климат >> Архив погоды >> Россия >> Кировская область >> Фаленки


ПОГОДА в Фаленках

  • Прогноз погоды в Фаленках
  • Монитор погоды в Фаленках
  • Климат города

АРХИВ ПОГОДЫ в Фаленках

Время (UTC), дата Ветер
(напр.,м/с)
 
Видим.   Явления Облачность Т
(С)
Тd
(С)
f
(%)
Тe
(С)
Тes
(С)
Комфортность P
(гПа)
Po
(гПа)
Тmin
(С)
Tmax
(С)
R
(мм)
R24
(мм)
S
(см)
15 8.08 С 2-5
{8}
40 км 10/10 600 м
[Cb cap]
+15.6 +10.9 74 +16 +16 1009.7 988.7 +19.8
18 8.08 С 2-5
{6}
10 км 10/10 600 м
[Sc]
+13.3 +9.8 79 +13 +13 1011.7 990.5
21 8.08 С 2-5
{6}
10 км 10/10 600 м
[Sc]
+11.8 +9.7 87 +11 +11 1012.6 991.4
00 9.08 С 1-4
{6}
20 км 10/10 600 м
[Sc]
+11.2 +9.2 87 +11 +11 1013.6 992.4
03 9.08 С 2-6
{6}
30 км 10/10 1000 м
[Sc]
+10.8 +8.8 87 +9 +9 1015.5 994.0 +10.0
06 9.08 С 3-8
{8}
50 км 9/3 1000 м
[Cu med, cong Ac trans]
+14.8 +7.6 62 +14 +17 1016.4 995.2
09 9.08 С 3-9
{11}
40 км 9/9 600 м
[Cb cap]
+15.5 +7.3 58 +15 +16 1017.2 996.0
12 9.08 С 2-7
{11}
45 км 9/9 600 м
[Cb cap]
+15.2 +8.2 63 +15 +16 1018.2 997.0
15 9.08 С 2-5
{8}
40 км 10/0
[Ac und]
+15.1 +8.1 63 +15 +15 1019.3 998.0 +17.1
18 9.08 С 3-4
{5}
20 км 10/0
[Ac und]
+13.1 +8.8 75 +12 +12 1020.6 999.2
21 9.08 С 3-4
{6}
10 км ясно +12.2 +9.3 82 +11 +11 1021.0 999.6
00 10.08 СЗ 2-3
{5}
20 км 8/0
[Ac trans]
+9.9 +8.1 89 +8 +8 1021.4 999.8
03 10.08 С 2-5
{5}
23 км 6/0
[Ci]
+11.3 +8.6 83 +10 +12 1022.0 1000.4 +8.5
06 10.08 С 3-7
{7}
45 км 10/0
[Ci]
+17.1 +9.7 62 +17 +23 1021.1 1000.0
09 10.08 СЗ 2-6
{8}
40 км 8/0
[Ac trans Ci]
+19.8 +9.3 51 +22 +30 комфорт 1019.3 998.5
12 10.08 З 2-9
{9}
40 км 10/0
[Ac trans Ci]
+22.7 +14.0 58 +26 +30 жарко 1016.1 995.5
15 10.08 СЗ 1-5
{9}
35 км 10/0
[Ci]
+21.5 +15.1 67 +25 +25 комфорт 1014.2 993.6 +23.2
18 10.08 З 3-6
{7}
20 км 10/3 600 м
[Cb cap Ci]
+19.9 +15.3 75 +22 +22 комфорт 1013.6 992.9
21 10.08 З 5-8
{9}
10 км 3/0
[Ci fib]
+20.0 +16.0 78 +22 +22 комфорт 1012.8 992.2
00 11.08 СЗ 4-7
{9}
20 км 10/0
[Ci]
+18.2 +15.9 86 +18 +18 1012.9 992.1
03 11.08 С 3-6
{7}
22 км 10/0
[Ci]
+18.2 +16.2 88 +19 +20 1013.3 992.5 +17.3
06 11.08 СЗ 4-9
{9}
40 км 9/0
[Ci]
+21.7 +15.1 66 +25 +30 комфорт 1013.5 992.9
09 11.08 С 5-9
{10}
50 км 3/1 1000 м
[Cu hum Ci fib]
+24.4 +14.5 54 +27 +32 жарко 1013.0 992.6
12 11.08 С 3-6
{10}
50 км 4/3 600 м
[Sc diur, vesp Ci fib]
+25.8 +15.2 52 +29 +32 душно 1012.3 992.1
15 11.08 З 2-4
{7}
35 км 8/4 1000 м
[Sc diur, vesp Ac trans Ci fib]
+24.5 +17.1 63 +28 +28 душно 1011.6 991.3 +26.7
18 11.08 штиль 0
{5}
20 км 4/1 1000 м
[Sc diur, vesp Ci fib]
+20.2 +16.5 79 +23 +23 комфорт 1012.1 991.5
21 11.08 СЗ 3-6
{6}
10 км ясно +20.0 +15.9 77 +23 +23 комфорт 1011.6 991.0
00 12.08 З 3-5
{7}
20 км ясно +19.0 +14.1 73 +20 +20 1011.6 990.8
03 12.08 СЗ 3-6
{7}
22 км 4/0
[Ci fib]
+18.6 +13.5 72 +19 +21 1011.5 990.7 +17.3
06 12.08 СЗ 1-4
{6}
50 км 1/0
[Ac trans]
+23.6 +16.6 65 +27 +36 жарко 1010.8 990.5
09 12.08 СЗ 2-6
{7}
50 км 8/8 1000 м
[Cu med, cong]
+25.9 +15.4 52 +29 +31 душно 1010.6 990.4
12 12.08 СЗ 1-4
{10}
50 км 6/6 1000 м
[Cu med, cong]
+25.6 +13.5 47 +28 +31 жарко 1010.6 990.4
15 12.08 Ю 1-2
{5}
50 км ясно +24.8 +15.9 58 +28 +29 жарко 1009.6 989.3 +27.7
18 12.08 З 1-2
{3}
10 км 1/0
[Ci fib]
+17.9 +16.0 89 +19 +19 1009.7 988.9
21 12.08 ЮЗ 1-2
{3}
10 км ясно +15.5 +14.6 94 +16 +16 1009.1 988.2
00 13.08 З 2-3
{4}
20 км 8/0
[Ac trans]
+14.6 +13.9 96 +14 +14 1008.3 987.4
03 13.08 ЮЗ 3-5
{5}
28 км 8/0
[Ac trans]
+15.6 +14.0 90 +15 +16 1007.2 986.4 +12.7
06 13.08 Ю 3-6
{6}
30 км 10/0
[Ci]
+22.5 +17.2 72 +27 +33 душно 1006.0 985.6
09 13.08 ЮЗ 3-8
{9}
30 км 10/3 1000 м
[Cu hum Ci]
+27.2 +16.6 52 +31 +36 душно 1004.5 984.5
12 13.08 З 1-5
{11}
30 км 10/8 600 м
[Cb cap Ci fib]
+26.4 +15.1 50 +29 +30 жарко 1003.9 983.8
15 13.08 З 1-3
{8}
30 км 8/0
[Ac trans Ci]
+23.0 +13.3 54 +26 +26 жарко 1004.0 983.6 +28.2
18 13.08 ЮЗ 1-3
{3}
20 км 10/3 600 м
[Cb cap Ci]
+16.1 +11.3 73 +17 +17 1005.0 984.2
21 13.08 штиль 0
{3}
10 км 8/0
[Ci]
+12.8 +10.5 86 +12 +12 1005.6 984.5
00 14.08 штиль 0
{2}
20 км 10/0
[Ac trans Ci fib]
+11.0 +9.7 92 +10 +10 1006.1 984.9
03 14.08 ЮЗ 1-1
{2}
30 км 10/0
[Ac trans Ci fib]
+12.5 +10.2 86 +12 +13 1007.0 985.9 +10.0
06 14.08 СЗ 1-5
{5}
50 км 8/0
[Cc]
+17.6 +10.3 62 +19 +26 1007.3 986.5
09 14.08 СЗ 4-8
{8}
50 км 6/4 1000 м
[Cu hum Ci fib]
+20.4 +9.0 48 +22 +26 комфорт 1007.6 987.1
12 14.08 СЗ 3-8
{8}
50 км 8/6 1000 м
[Cu hum Ci fib]
+21.4 +10.4 49 +23 +25 комфорт 1008.2 987.6
15 14.08 СЗ 3-6
{9}
45 км 4/3 600 м
[Cb cap Ci fib]
+19.8 +8.8 49 +21 +21 комфорт 1008.8 988.1 +22.3
18 14.08 СЗ 2-3
{10}
10 км 3/0
[Ac trans]
+14.2 +10.6 79 +14 +14 1010.6 989.6
21 14.08 СЗ 2-3
{5}
10 км ясно +12.8 +9.9 83 +12 +12 1011.4 990.2
00 15.08 СЗ 2-3
{5}
10 км ясно +11.2 +9.8 91 +10 +10 1012.4 991.1
03 15.08 СЗ 1-3
{4}
22 км ясно +12.2 +10.5 89 +12 +14 1013.5 992.3 +10.4
06 15.08 СЗ 2-4
{4}
50 км 3/3 1000 м
[Cu hum]
+16.9 +11.8 72 +17 +23 1013.9 992.9
09 15.08 СЗ 3-6
{8}
50 км 8/8 1000 м
[Cu med, cong]
+19.2 +8.4 50 +20 +22 1014.2 993.3

 

Местоположение метеостанции Фаленки (Кировская область, Россия): широта 58.35 долгота 51.57 высота над уровнем моря 178 м.

В архиве по умолчанию представлена погода в Фаленках за последнюю неделю. Архивные данные за месяц целиком и за предыдущие месяцы, начиная с января 2011 года, Вы можете получить, выбрав интересующий диапазон дат из раскрывающегося списка и нажав кнопку "Ввод!".


*Определитесь, кто Вы:
робот инопланетянин человек

Внимание! Время в таблицах - всемирное. Для получения местного времени необходимо прибавить поправку, которая в Фаленках равна 3 ч.

Смотрите также архив погоды в соседних городах и на ближайших метеорологических станциях:

Погода в Глазове (Удмуртия, Россия) (64 км)
Погода в Унях (Кировская область, Россия) (67 км)
Погода в Белой Холунице (Кировская область, Россия) (68 км)
Погода в Кумене (Кировская область, Россия) (101 км)
Погода в Нагорске (Кировская область, Россия) (116 км)
Погода в Кирове (Кировская область, Россия) (116 км)
Погода в Кирсе (Кировская область, Россия) (118 км)
Погода в Селтах (Удмуртия, Россия) (122 км)
Погода в Игре (Удмуртия, Россия) (127 км)
Погода в Нолинске (Кировская область, Россия) (131 км)

Пояснения к столбцам:

Ветер - указаны скорость ветра в м/с - средняя за 10 мин, порывы в срок и между сроками (в фигурных скобках) и направление, откуда дует ветер: С - северный, СВ - северо-восточный, В - восточный, ЮВ - юго-восточный, Ю - южный, ЮЗ - юго-западный, З - западный, СЗ - северо-западный.
Видимость - горизонтальная дальность видимости в метрах или километрах. При видимости от 1 до 10 км при отсутствии осадков обычно наблюдается дымка, при ухудшении видимости до 1 км и менее - туман. В сухую погоду видимость может ухудшаться дымом, пылью или мглою.
Явления - указаны атмосферные явления, наблюдавшиеся в срок или в последний час перед сроком; фигурными скобками обозначены явления, наблюдавшиеся между сроками (за 1-3 часа до срока); квадратными скобками обозначены град или гололедные отложения с указанием их диаметра в мм.
Облачность - указаны через наклонную черту общая и нижняя облачность в баллах и высота нижней границы облаков в метрах; квадратными скобками обозначены формы облаков: Ci - перистые, Cs - перисто-слоистые, Cc - перисто-кучевые, Ac - высококучевые, As - высокослоистые, Sc - слоисто-кучевые, Ns - слоисто-дождевые, Cu - кучевые, Cb - кучево-дождевые. Подробнее классификацию облаков см. в Атласе облаков (PDF).
T - Температура воздуха - температура, измеренная на высоте 2 м над землей.
Td - Температура точки росы - температура, при понижении до которой содержащийся в воздухе водяной пар достигнет насыщения.
f - Относительная влажность воздуха - влажноcть воздуха, измеренная на высоте 2 м над землей.
Te - Эффективная температура - температура, которую ощущает одетый по сезону человек в тени. Характеристика душности погоды. При расчете учитывается влияние влажности воздуха и скорости ветра на теплоощущения человека.
Tes - Эффективная температура на солнце - температура, которую ощущает человек, с поправкой на солнечный нагрев. Характеристика знойности погоды. Зависит от высоты солнца над горизонтом, облачности и скорости ветра. Ночью, в пасмурную погоду, а также при ветре 12 м/с и более поправка равна нулю.
P - Атмосферное давление - приведенное к уровню моря атмосферное давление.
Po - Атмосферное давление - измеренное на уровне метеостанции атмосферное давление.
Tmin - Минимальная температура - минимум температуры воздуха на высоте 2 м над землей.
Tmax - Максимальная температура - максимум температуры воздуха на высоте 2 м над землей.
R - Количество осадков - Количество выпавших осадков за период времени, мм. При наведении курсора мыши на число - период времени, за который выпало указанное количество осадков.
R24 - Количество осадков - Количество выпавших осадков за 24 часа, мм.
S - Снежный покров - Высота снежного покрова, см. При наведении курсора мыши на число - состояние снежного покрова и степень покрытия местности в баллах.